Voltar ao catálogo

STARLINK-34434

AtivoComunicaçõesVLEO
NORAD 64422·PAYLOAD·🇺🇸 United States

Lançado Jun 17, 2025 de Vandenberg Space Force Base

Loading…

Próximas Passagens (próximas 24 horas)

TLE

AtualizadoSource: CelesTrak SupGP

Época: Sep 15, 2026, 03:53 UTC

1 64422C 25129L   26258.16229167  .00020156  00000+0  70112-3 0  2589
2 64422  69.9993 315.2391 0003405 266.6005 173.8005 15.29570807    15

Acompanhe STARLINK-34434 em tempo real com AllMySat

Download on the App Store